This demonstration page uses our WeatherBlox Daily Observations layout. Learn more.

Left ArrowRight Arrow

Hourly Observations for March 8, 2017

Temp ( °F °C ) Dew Point ( °F °C ) Humidity (%) Winds ( mph kmh ) Pressure ( in mb ) Visibility ( mi km ) Precip ( " mm )
12:53 am 00:53 Clear 39 3.9 35 1.7 86 86 SSW 3 6 30.16 1021 10 16 N/A
1:53 am 01:53 Clear 40 4.4 34 1.1 79 79 SW 5 7 30.17 1022 10 16 N/A
2:53 am 02:53 Clear 41 5 32 undefined 70 70 SW 6 9 30.16 1021 10 16 N/A
3:53 am 03:53 Clear 42 5.6 31 -0.6 65 65 SW 6 9 30.15 1021 10 16 N/A
4:53 am 04:53 Clear 42 5.6 29 -1.7 60 60 VRB 7 11 30.15 1021 10 16 N/A
5:53 am 05:53 Clear 44 6.7 29 -1.7 55 55 SW 12 19 30.14 1021 10 16 N/A
6:53 am 06:53 Clear 43 6.1 29 -1.7 58 58 WSW 10 17 30.17 1022 10 16 N/A
7:53 am 07:53 Sunny 44 6.7 30 -1.1 58 58 WSW 9 15 30.18 1022 10 16 N/A
8:53 am 08:53 Sunny 47 8.3 31 -0.6 54 54 WSW 10 17 30.19 1023 10 16 N/A
9:53 am 09:53 Sunny 50 10 31 -0.6 48 48 WSW 15 24 30.21 1023 10 16 N/A
10:53 am 10:53 Sunny 54 12.2 29 -1.7 38 38 WSW 15 24 30.20 1023 10 16 N/A
11:53 am 11:53 Sunny 57 13.9 22 -5.6 26 26 W 22 35 30.20 1023 10 16 N/A
12:53 pm 12:53 Sunny 56 13.3 24 -4.4 29 29 WSW 14 22 30.19 1022 10 16 N/A
1:53 pm 13:53 Sunny 60 15.6 23 -5 24 24 W 20 31 30.17 1022 10 16 N/A
2:53 pm 14:53 Sunny 60 15.6 21 -6.1 22 22 W 18 30 30.17 1022 10 16 N/A
3:53 pm 15:53 Sunny 62 16.7 23 -5 22 22 W 18 30 30.18 1022 10 16 N/A
4:53 pm 16:53 Sunny 60 15.6 22 -5.6 23 23 WSW 17 28 30.17 1022 10 16 N/A
5:53 pm 17:53 Sunny 59 15 22 -5.6 24 24 W 13 20 30.17 1022 10 16 N/A
6:53 pm 18:53 Clear 56 13.3 24 -4.4 29 29 WSW 10 17 30.18 1022 10 16 N/A
7:53 pm 19:53 Clear 53 11.7 24 -4.4 32 32 WSW 8 13 30.19 1023 10 16 N/A
8:53 pm 20:53 Clear 50 10 26 -3.3 39 39 WSW 5 7 30.21 1023 10 16 N/A
9:53 pm 21:53 Clear 51 10.6 26 -3.3 38 38 WSW 6 9 30.21 1023 10 16 N/A
10:53 pm 22:53 Clear 48 8.9 25 -3.9 41 41 WSW 6 9 30.22 1023 10 16 N/A
11:53 pm 23:53 Clear 41 5 27 -2.8 57 57 N N/A 30.22 1023 10 16 N/A

Powered by AerisWeather